,,Stat5,,Stat1,,Stat2,,Stat3,,Stat4,,Wind1,,Wind1,
time,status,PA1M_AVG,status,PR1M_SUM,status,RH1M_AVG,status,SR1M_AVG,status,TA1M_AVG,status,W1dAve1m,status,W1sAve1m,
2003-08-28, 00:00:00,VALID,919.932,VALID,0,VALID,99.7421,VALID,0.0339617,VALID,19.0914,VALID,103,VALID,0.766797,
2003-08-28, 00:01:00,VALID,919.905,VALID,0,VALID,99.7714,VALID,0.0169808,VALID,19.0884,VALID,128,VALID,1.05147,
2003-08-28, 00:02:00,VALID,919.88,VALID,0,VALID,99.793,VALID,0.0169808,VALID,19.0916,VALID,142,VALID,1.36567,
2003-08-28, 00:03:00,VALID,919.851,VALID,0,VALID,99.8108,VALID,0.0169808,VALID,19.0981,VALID,142,VALID,1.13051,
2003-08-28, 00:04:00,VALID,919.828,VALID,0,VALID,99.8121,VALID,0.0509425,VALID,19.0951,VALID,144,VALID,1.10811,
2003-08-28, 00:05:00,VALID,919.808,VALID,0,VALID,99.8324,VALID,0.0169808,VALID,19.0849,VALID,149,VALID,1.63477,
2003-08-28, 00:06:00,VALID,919.795,VALID,0,VALID,99.8235,VALID,-0.0169808,VALID,19.0819,VALID,129,VALID,0.942145,
2003-08-28, 00:07:00,VALID,919.779,VALID,0,VALID,99.8375,VALID,0.0339617,VALID,19.0914,VALID,137,VALID,0.969752,
2003-08-28, 00:08:00,VALID,919.76,VALID,0,VALID,99.8184,VALID,0.0339617,VALID,19.0854,VALID,138,VALID,1.04601,
2003-08-28, 00:09:00,VALID,919.749,VALID,0,VALID,99.8171,VALID,0.0169808,VALID,19.0787,VALID,112,VALID,1.11888,
2003-08-28, 00:10:00,VALID,919.742,VALID,0,VALID,99.7917,VALID,0,VALID,19.0852,VALID,95,VALID,0.827691,
2003-08-28, 00:11:00,VALID,919.758,VALID,0,VALID,99.7803,VALID,-0.0679233,VALID,19.0834,VALID,101,VALID,0.785616,
2003-08-28, 00:12:00,VALID,919.738,VALID,0,VALID,99.7574,VALID,-0.0849042,VALID,19.0898,VALID,88,VALID,1.13642,
2003-08-28, 00:13:00,VALID,919.731,VALID,0,VALID,99.7345,VALID,-0.101885,VALID,19.0931,VALID,90,VALID,0.470536,
2003-08-28, 00:14:00,VALID,919.717,VALID,0,VALID,99.6824,VALID,-0.101885,VALID,19.1224,VALID,122,VALID,0.944866,
2003-08-28, 00:15:00,VALID,919.703,VALID,0,VALID,99.5387,VALID,-0.101885,VALID,19.1028,VALID,109,VALID,0.966146,
2003-08-28, 00:16:00,VALID,919.683,VALID,0,VALID,99.4242,VALID,-0.101885,VALID,19.0931,VALID,111,VALID,0.912277,
2003-08-28, 00:17:00,VALID,919.675,VALID,0,VALID,99.2538,VALID,-0.101885,VALID,19.0767,VALID,131,VALID,0.595353,
2003-08-28, 00:18:00,VALID,919.662,VALID,0,VALID,99.1127,VALID,-0.0509425,VALID,19.0801,VALID,112,VALID,0.79182,
2003-08-28, 00:19:00,VALID,919.67,VALID,0,VALID,98.9817,VALID,-0.0849042,VALID,19.0642,VALID,69,VALID,0.51262,
2003-08-28, 00:20:00,VALID,919.664,VALID,0,VALID,98.8762,VALID,-0.0849042,VALID,19.067,VALID,87,VALID,0.689062,
2003-08-28, 00:21:00,VALID,919.669,VALID,0,VALID,98.6384,VALID,-0.0679233,VALID,19.0705,VALID,74,VALID,0.661161,
2003-08-28, 00:22:00,VALID,919.653,VALID,0,VALID,98.5354,VALID,-0.0849042,VALID,19.0705,VALID,90,VALID,0.363064,
2003-08-28, 00:23:00,VALID,919.633,VALID,0,VALID,98.4273,VALID,-0.101885,VALID,19.067,VALID,128,VALID,0.66942,
2003-08-28, 00:24:00,VALID,919.604,VALID,0,VALID,98.3421,VALID,-0.0849042,VALID,19.0638,VALID,156,VALID,0.717748,
2003-08-28, 00:25:00,VALID,919.578,VALID,0,VALID,98.2785,VALID,-0.101885,VALID,19.0767,VALID,152,VALID,0.653722,
2003-08-28, 00:26:00,VALID,919.549,VALID,0,VALID,98.2467,VALID,-0.101885,VALID,19.0963,VALID,153,VALID,0.847155,
2003-08-28, 00:27:00,VALID,919.522,VALID,0,VALID,98.2238,VALID,-0.101885,VALID,19.1161,VALID,134,VALID,0.597321,
2003-08-28, 00:28:00,VALID,919.476,VALID,0,VALID,98.2162,VALID,-0.101885,VALID,19.106,VALID,147,VALID,1.0558,
2003-08-28, 00:29:00,VALID,919.457,VALID,0,VALID,98.2264,VALID,-0.101885,VALID,19.1095,VALID,141,VALID,1.0599,
2003-08-28, 00:30:00,VALID,919.435,VALID,0,VALID,98.3001,VALID,-0.101885,VALID,19.0995,VALID,142,VALID,1.47567,
2003-08-28, 00:31:00,VALID,919.418,VALID,0,VALID,98.3523,VALID,-0.0849042,VALID,19.1062,VALID,145,VALID,1.30048,
2003-08-28, 00:32:00,VALID,919.402,VALID,0,VALID,98.4692,VALID,-0.101885,VALID,19.0928,VALID,148,VALID,0.98943,
2003-08-28, 00:33:00,VALID,919.386,VALID,0,VALID,98.5722,VALID,-0.0849042,VALID,19.0965,VALID,131,VALID,1.02564,
2003-08-28, 00:34:00,VALID,919.374,VALID,0,VALID,98.6104,VALID,-0.0849042,VALID,19.076,VALID,145,VALID,1.38616,
2003-08-28, 00:35:00,VALID,919.316,VALID,0,VALID,98.6511,VALID,-0.0339617,VALID,19.0734,VALID,141,VALID,1.64219,
2003-08-28, 00:36:00,VALID,919.299,VALID,0,VALID,98.6765,VALID,-0.0509425,VALID,19.0601,VALID,141,VALID,0.876736,
2003-08-28, 00:37:00,VALID,919.262,VALID,0,VALID,98.6829,VALID,-0.0509425,VALID,19.0665,VALID,130,VALID,1.1058,
2003-08-28, 00:38:00,VALID,919.238,VALID,0,VALID,98.6117,VALID,-0.0849042,VALID,19.0702,VALID,151,VALID,1.1859,
2003-08-28, 00:39:00,VALID,919.208,VALID,0,VALID,98.5112,VALID,-0.0509425,VALID,19.0827,VALID,151,VALID,1.52711,
2003-08-28, 00:40:00,VALID,919.187,VALID,0,VALID,98.3713,VALID,-0.0509425,VALID,19.0961,VALID,148,VALID,1.47977,
2003-08-28, 00:41:00,VALID,919.18,VALID,0,VALID,98.3128,VALID,-0.0169808,VALID,19.1142,VALID,143,VALID,1.33326,
2003-08-28, 00:42:00,VALID,919.176,VALID,0,VALID,98.2925,VALID,0.0509425,VALID,19.1398,VALID,144,VALID,0.981696,
2003-08-28, 00:43:00,VALID,919.166,VALID,0,VALID,98.2671,VALID,0.0169808,VALID,19.1398,VALID,136,VALID,0.954427,
2003-08-28, 00:44:00,VALID,919.169,VALID,0,VALID,98.281,VALID,0.0169808,VALID,19.1468,VALID,137,VALID,0.714732,
2003-08-28, 00:45:00,VALID,919.151,VALID,0,VALID,98.2925,VALID,0,VALID,19.1336,VALID,135,VALID,0.744191,
2003-08-28, 00:46:00,VALID,919.148,VALID,0,VALID,98.365,VALID,0.0169808,VALID,19.1433,VALID,126,VALID,1.01677,
2003-08-28, 00:47:00,VALID,919.132,VALID,0,VALID,98.4018,VALID,0,VALID,19.1435,VALID,147,VALID,0.527444,
2003-08-28, 00:48:00,VALID,919.139,VALID,0,VALID,98.4018,VALID,0.0169808,VALID,19.1336,VALID,75,VALID,0.354241,
2003-08-28, 00:49:00,VALID,919.139,VALID,0,VALID,98.351,VALID,0.0169808,VALID,19.1301,VALID,126,VALID,0.714063,
2003-08-28, 00:50:00,VALID,919.133,VALID,0,VALID,98.2416,VALID,0.0169808,VALID,19.1078,VALID,118,VALID,0.385417,
2003-08-28, 00:51:00,VALID,919.146,VALID,0,VALID,98.2086,VALID,0.0169808,VALID,19.1078,VALID,121,VALID,0.244196,
2003-08-28, 00:52:00,VALID,919.149,VALID,0,VALID,98.0394,VALID,0.0339617,VALID,19.0983,VALID,132,VALID,0.616787,
2003-08-28, 00:53:00,VALID,919.15,VALID,0,VALID,97.8716,VALID,0,VALID,19.069,VALID,121,VALID,0.56296,
2003-08-28, 00:54:00,VALID,919.138,VALID,0,VALID,97.6898,VALID,0.0169808,VALID,19.0561,VALID,132,VALID,0.455329,
2003-08-28, 00:55:00,VALID,919.122,VALID,0,VALID,97.4787,VALID,0.0169808,VALID,19.0496,VALID,86,VALID,0.445313,
2003-08-28, 00:56:00,VALID,919.125,VALID,0,VALID,97.4265,VALID,-0.0169808,VALID,19.0559,VALID,56,VALID,0.307143,
2003-08-28, 00:57:00,VALID,919.112,VALID,0,VALID,97.1887,VALID,0,VALID,19.0561,VALID,56,VALID,0.745226,
2003-08-28, 00:58:00,VALID,919.119,VALID,0,VALID,96.8441,VALID,0,VALID,19.0397,VALID,70,VALID,0.733929,
2003-08-28, 00:59:00,VALID,919.109,VALID,0,VALID,96.6763,VALID,-0.0169808,VALID,19.0404,VALID,64,VALID,0.516627,
2003-08-28, 01:00:00,VALID,919.081,VALID,0,VALID,96.5529,VALID,0,VALID,19.04,VALID,54,VALID,0.279871,
2003-08-28, 01:01:00,VALID,919.064,VALID,0,VALID,96.5161,VALID,0,VALID,19.0365,VALID,55,VALID,0.134014,
2003-08-28, 01:02:00,VALID,919.041,VALID,0,VALID,96.4105,VALID,0.0169808,VALID,19.037,VALID,74,VALID,0.299107,
2003-08-28, 01:03:00,VALID,919.033,VALID,0,VALID,96.5453,VALID,0,VALID,19.03,VALID,75,VALID,0.00223214,
2003-08-28, 01:04:00,VALID,919.032,VALID,0,VALID,96.5567,VALID,0,VALID,19.0365,VALID,63,VALID,0.113715,
2003-08-28, 01:05:00,VALID,919.031,VALID,0,VALID,96.6229,VALID,-0.0169808,VALID,19.0298,VALID,23,VALID,0.456696,
2003-08-28, 01:06:00,VALID,919.026,VALID,0,VALID,96.7233,VALID,0,VALID,19.0402,VALID,20,VALID,0.380609,
2003-08-28, 01:07:00,VALID,919.023,VALID,0,VALID,96.8505,VALID,-0.0169808,VALID,19.0499,VALID,20,VALID,0.0539982,
2003-08-28, 01:08:00,VALID,919.004,VALID,0,VALID,96.8276,VALID,0,VALID,19.0432,VALID,20,VALID,0.078125,
2003-08-28, 01:09:00,VALID,918.989,VALID,0,VALID,96.8123,VALID,0,VALID,19.0496,VALID,20,VALID,0.0475446,
2003-08-28, 01:10:00,VALID,918.979,VALID,0,VALID,96.6954,VALID,-0.0169808,VALID,19.0303,VALID,20,VALID,0.0446429,
2003-08-28, 01:11:00,VALID,918.971,VALID,0,VALID,96.8518,VALID,0,VALID,19.04,VALID,316,VALID,0.393663,
2003-08-28, 01:12:00,VALID,918.953,VALID,0,VALID,96.8721,VALID,0.0169808,VALID,19.0337,VALID,247,VALID,0.433705,
2003-08-28, 01:13:00,VALID,918.949,VALID,0,VALID,96.8607,VALID,-0.0169808,VALID,19.0174,VALID,247,VALID,0.42528,
2003-08-28, 01:14:00,VALID,918.944,VALID,0,VALID,96.9688,VALID,0,VALID,19.0176,VALID,247,VALID,0.105239,
2003-08-28, 01:15:00,VALID,918.945,VALID,0,VALID,97.1964,VALID,0,VALID,19.0337,VALID,247,VALID,0.110577,
2003-08-28, 01:16:00,VALID,918.935,VALID,0,VALID,97.3439,VALID,-0.0169808,VALID,19.0337,VALID,247,VALID,0,
2003-08-28, 01:17:00,VALID,918.933,VALID,0,VALID,97.5753,VALID,0,VALID,19.0531,VALID,247,VALID,0.0426339,
2003-08-28, 01:18:00,VALID,918.917,VALID,0,VALID,97.7584,VALID,-0.0339617,VALID,19.0626,VALID,247,VALID,0.093316,
2003-08-28, 01:19:00,VALID,918.898,VALID,0,VALID,97.9339,VALID,-0.0169808,VALID,19.0824,VALID,247,VALID,0.00334821,
2003-08-28, 01:20:00,VALID,918.883,VALID,0,VALID,97.9034,VALID,0,VALID,19.0685,VALID,247,VALID,0.0849359,
2003-08-28, 01:21:00,VALID,918.845,VALID,0,VALID,97.7622,VALID,0.0169808,VALID,19.0596,VALID,247,VALID,0.0179228,
2003-08-28, 01:22:00,VALID,918.807,VALID,0,VALID,97.8411,VALID,0.0339617,VALID,19.0462,VALID,247,VALID,0.119391,
2003-08-28, 01:23:00,VALID,918.793,VALID,0,VALID,97.663,VALID,0.0169808,VALID,19.0328,VALID,190,VALID,0.316295,
2003-08-28, 01:24:00,VALID,918.777,VALID,0,VALID,97.5206,VALID,0,VALID,19.0238,VALID,137,VALID,0.343304,
2003-08-28, 01:25:00,VALID,918.76,VALID,0,VALID,97.2879,VALID,-0.0169808,VALID,18.9816,VALID,127,VALID,0.40842,
2003-08-28, 01:26:00,VALID,918.734,VALID,0,VALID,97.0997,VALID,-0.0849042,VALID,18.9701,VALID,115,VALID,0.664063,
2003-08-28, 01:27:00,VALID,918.732,VALID,0,VALID,97.073,VALID,-0.101885,VALID,18.954,VALID,113,VALID,0.604167,
2003-08-28, 01:28:00,VALID,918.721,VALID,0,VALID,97.0845,VALID,-0.0849042,VALID,18.9537,VALID,113,VALID,0.699908,
2003-08-28, 01:29:00,VALID,918.707,VALID,0,VALID,97.1086,VALID,-0.0849042,VALID,18.9674,VALID,110,VALID,0.537861,
2003-08-28, 01:30:00,VALID,918.712,VALID,0,VALID,97.1264,VALID,-0.101885,VALID,18.9604,VALID,101,VALID,0.59375,
2003-08-28, 01:31:00,VALID,918.743,VALID,0,VALID,97.1951,VALID,-0.101885,VALID,18.9607,VALID,93,VALID,0.5125,
2003-08-28, 01:32:00,VALID,918.747,VALID,0,VALID,97.3553,VALID,-0.101885,VALID,18.9738,VALID,87,VALID,0.556641,
2003-08-28, 01:33:00,VALID,918.771,VALID,0,VALID,97.424,VALID,-0.0849042,VALID,18.9771,VALID,69,VALID,0.557813,
2003-08-28, 01:34:00,VALID,918.799,VALID,0,VALID,97.424,VALID,-0.101885,VALID,18.9671,VALID,65,VALID,0.574119,
2003-08-28, 01:35:00,VALID,918.839,VALID,0,VALID,97.5753,VALID,-0.101885,VALID,18.98,VALID,25,VALID,1.16567,
2003-08-28, 01:36:00,VALID,918.869,VALID,0,VALID,97.527,VALID,-0.101885,VALID,18.9641,VALID,20,VALID,1.03065,
2003-08-28, 01:37:00,VALID,918.898,VALID,0,VALID,97.5499,VALID,-0.101885,VALID,18.9323,VALID,15,VALID,1.1192,
2003-08-28, 01:38:00,VALID,918.927,VALID,0,VALID,97.7406,VALID,-0.118866,VALID,18.9092,VALID,21,VALID,0.882813,
2003-08-28, 01:39:00,VALID,918.939,VALID,0,VALID,97.8373,VALID,-0.118866,VALID,18.8998,VALID,9,VALID,0.973524,
2003-08-28, 01:40:00,VALID,918.945,VALID,0,VALID,97.9441,VALID,-0.152827,VALID,18.8873,VALID,10,VALID,0.575223,
2003-08-28, 01:41:00,VALID,918.931,VALID,0,VALID,98.0725,VALID,-0.0339617,VALID,18.8691,VALID,26,VALID,0.315505,
2003-08-28, 01:42:00,VALID,918.924,VALID,0,VALID,98.1971,VALID,-0.0169808,VALID,18.8822,VALID,8,VALID,0.391085,
2003-08-28, 01:43:00,VALID,918.892,VALID,0,VALID,98.2823,VALID,-0.0169808,VALID,18.8621,VALID,1,VALID,0.273237,
2003-08-28, 01:44:00,VALID,918.89,VALID,0,VALID,98.3828,VALID,-0.0169808,VALID,18.8594,VALID,3,VALID,0.15067,
2003-08-28, 01:45:00,VALID,918.899,VALID,0,VALID,98.4731,VALID,-0.0169808,VALID,18.876,VALID,11,VALID,0.0763393,
2003-08-28, 01:46:00,VALID,918.889,VALID,0,VALID,98.5137,VALID,-0.0169808,VALID,18.876,VALID,11,VALID,0.136285,
2003-08-28, 01:47:00,VALID,918.896,VALID,0,VALID,98.543,VALID,0,VALID,18.8787,VALID,11,VALID,0.0216518,
2003-08-28, 01:48:00,VALID,918.901,VALID,0,VALID,98.5099,VALID,-0.0169808,VALID,18.8758,VALID,11,VALID,0.000200321,
2003-08-28, 01:49:00,VALID,918.895,VALID,0,VALID,98.4349,VALID,-0.0169808,VALID,18.8561,VALID,11,VALID,0.253217,
2003-08-28, 01:50:00,VALID,918.885,VALID,0,VALID,98.4527,VALID,0,VALID,18.8333,VALID,11,VALID,0.352364,
2003-08-28, 01:51:00,VALID,918.854,VALID,0,VALID,98.6002,VALID,0,VALID,18.8269,VALID,27,VALID,0.340848,
2003-08-28, 01:52:00,VALID,918.831,VALID,0,VALID,98.7147,VALID,-0.0169808,VALID,18.8467,VALID,28,VALID,0.18192,
2003-08-28, 01:53:00,VALID,918.82,VALID,0,VALID,98.7897,VALID,0,VALID,18.8626,VALID,28,VALID,0.348524,
2003-08-28, 01:54:00,VALID,918.81,VALID,0,VALID,98.7897,VALID,-0.0169808,VALID,18.8559,VALID,29,VALID,0.59308,
2003-08-28, 01:55:00,VALID,918.787,VALID,0,VALID,98.7871,VALID,0,VALID,18.8524,VALID,39,VALID,0.671474,
2003-08-28, 01:56:00,VALID,918.772,VALID,0,VALID,98.7375,VALID,-0.0849042,VALID,18.8472,VALID,62,VALID,0.975184,
2003-08-28, 01:57:00,VALID,918.76,VALID,0,VALID,98.6307,VALID,-0.101885,VALID,18.8317,VALID,72,VALID,1.03245,
2003-08-28, 01:58:00,VALID,918.752,VALID,0,VALID,98.6791,VALID,-0.101885,VALID,18.8156,VALID,65,VALID,0.842411,
2003-08-28, 01:59:00,VALID,918.734,VALID,0,VALID,98.791,VALID,-0.101885,VALID,18.8059,VALID,62,VALID,0.442187,
2003-08-28, 02:00:00,VALID,918.726,VALID,0,VALID,98.7261,VALID,-0.101885,VALID,18.7955,VALID,62,VALID,0.469401,
2003-08-28, 02:01:00,VALID,918.709,VALID,0,VALID,98.7363,VALID,-0.118866,VALID,18.7992,VALID,58,VALID,0.240625,
2003-08-28, 02:02:00,VALID,918.702,VALID,0,VALID,98.6384,VALID,-0.101885,VALID,18.7925,VALID,84,VALID,0.430889,
2003-08-28, 02:03:00,VALID,918.69,VALID,0,VALID,98.6244,VALID,-0.0679233,VALID,18.7861,VALID,87,VALID,0.414292,
2003-08-28, 02:04:00,VALID,918.679,VALID,0,VALID,98.6231,VALID,-0.101885,VALID,18.7833,VALID,87,VALID,0.330128,
2003-08-28, 02:05:00,VALID,918.665,VALID,0,VALID,98.5837,VALID,-0.118866,VALID,18.7667,VALID,91,VALID,0.343304,
2003-08-28, 02:06:00,VALID,918.654,VALID,0,VALID,98.5583,VALID,-0.0849042,VALID,18.7635,VALID,97,VALID,0.426116,
2003-08-28, 02:07:00,VALID,918.624,VALID,0,VALID,98.5252,VALID,-0.101885,VALID,18.7639,VALID,97,VALID,0.488281,
2003-08-28, 02:08:00,VALID,918.621,VALID,0,VALID,98.4705,VALID,-0.101885,VALID,18.754,VALID,98,VALID,0.658929,
2003-08-28, 02:09:00,VALID,918.596,VALID,0,VALID,98.4171,VALID,-0.101885,VALID,18.7572,VALID,100,VALID,0.688101,
2003-08-28, 02:10:00,VALID,918.576,VALID,0,VALID,98.4387,VALID,-0.101885,VALID,18.7736,VALID,100,VALID,0.534697,
2003-08-28, 02:11:00,VALID,918.554,VALID,0,VALID,98.5532,VALID,-0.0169808,VALID,18.7685,VALID,95,VALID,0.36258,
2003-08-28, 02:12:00,VALID,918.541,VALID,0,VALID,98.6231,VALID,0,VALID,18.7881,VALID,94,VALID,0.110268,
2003-08-28, 02:13:00,VALID,918.51,VALID,0,VALID,98.6867,VALID,0,VALID,18.8013,VALID,94,VALID,0.120536,
2003-08-28, 02:14:00,VALID,918.49,VALID,0,VALID,98.763,VALID,0,VALID,18.801,VALID,94,VALID,0.151042,
2003-08-28, 02:15:00,VALID,918.477,VALID,0,VALID,98.88,VALID,0,VALID,18.8269,VALID,50,VALID,0.503348,
2003-08-28, 02:16:00,VALID,918.465,VALID,0,VALID,98.941,VALID,0,VALID,18.8495,VALID,31,VALID,0.695913,
2003-08-28, 02:17:00,VALID,918.462,VALID,0,VALID,98.9486,VALID,0,VALID,18.8626,VALID,31,VALID,0.49977,
2003-08-28, 02:18:00,VALID,918.455,VALID,0,VALID,98.9346,VALID,0,VALID,18.8787,VALID,31,VALID,0.336538,
2003-08-28, 02:19:00,VALID,918.451,VALID,0,VALID,98.8914,VALID,0,VALID,18.8656,VALID,31,VALID,0.260938,
2003-08-28, 02:20:00,VALID,918.441,VALID,0,VALID,98.8037,VALID,0.0169808,VALID,18.8561,VALID,31,VALID,0.296875,
2003-08-28, 02:21:00,VALID,918.421,VALID,0,VALID,98.7083,VALID,0,VALID,18.8167,VALID,31,VALID,0.00846354,
2003-08-28, 02:22:00,VALID,918.397,VALID,0,VALID,98.6129,VALID,-0.0169808,VALID,18.8105,VALID,31,VALID,0.199554,
2003-08-28, 02:23:00,VALID,918.37,VALID,0,VALID,98.5481,VALID,0,VALID,18.7846,VALID,37,VALID,0.378005,
2003-08-28, 02:24:00,VALID,918.353,VALID,0,VALID,98.6282,VALID,0,VALID,18.772,VALID,114,VALID,0.587776,
2003-08-28, 02:25:00,VALID,918.325,VALID,0,VALID,98.6015,VALID,0,VALID,18.7655,VALID,118,VALID,0.847556,
2003-08-28, 02:26:00,VALID,918.289,VALID,0,VALID,98.618,VALID,0.0169808,VALID,18.7427,VALID,118,VALID,0.88192,
2003-08-28, 02:27:00,VALID,918.266,VALID,0,VALID,98.6791,VALID,0,VALID,18.7466,VALID,120,VALID,0.938839,
2003-08-28, 02:28:00,VALID,918.233,VALID,0,VALID,98.7185,VALID,0.0169808,VALID,18.7436,VALID,116,VALID,0.86697,
2003-08-28, 02:29:00,VALID,918.198,VALID,0,VALID,98.7617,VALID,0,VALID,18.73,VALID,115,VALID,0.735714,
2003-08-28, 02:30:00,VALID,918.181,VALID,0,VALID,98.7757,VALID,0,VALID,18.7307,VALID,104,VALID,0.72516,
2003-08-28, 02:31:00,VALID,918.184,VALID,0,VALID,98.7566,VALID,0,VALID,18.7205,VALID,104,VALID,0.774127,
2003-08-28, 02:32:00,VALID,918.182,VALID,0,VALID,98.8113,VALID,0,VALID,18.7203,VALID,101,VALID,0.530849,
2003-08-28, 02:33:00,VALID,918.185,VALID,0,VALID,98.8456,VALID,0,VALID,18.7235,VALID,99,VALID,0.602902,
2003-08-28, 02:34:00,VALID,918.194,VALID,0,VALID,98.8304,VALID,0,VALID,18.7335,VALID,108,VALID,0.489286,
2003-08-28, 02:35:00,VALID,918.182,VALID,0,VALID,98.8024,VALID,0.0169808,VALID,18.7205,VALID,101,VALID,0.48546,
2003-08-28, 02:36:00,VALID,918.173,VALID,0,VALID,98.8189,VALID,0.0169808,VALID,18.7404,VALID,119,VALID,0.815179,
2003-08-28, 02:37:00,VALID,918.145,VALID,0,VALID,98.7833,VALID,0.0169808,VALID,18.7335,VALID,126,VALID,0.835537,
2003-08-28, 02:38:00,VALID,918.112,VALID,0,VALID,98.7325,VALID,0,VALID,18.7332,VALID,124,VALID,0.892233,
2003-08-28, 02:39:00,VALID,918.082,VALID,0,VALID,98.6435,VALID,0,VALID,18.73,VALID,120,VALID,0.889223,
2003-08-28, 02:40:00,VALID,918.076,VALID,0,VALID,98.6155,VALID,0,VALID,18.7401,VALID,115,VALID,0.634598,
2003-08-28, 02:41:00,VALID,918.057,VALID,0,VALID,98.6651,VALID,0.0169808,VALID,18.7235,VALID,142,VALID,0.407143,
2003-08-28, 02:42:00,VALID,918.06,VALID,0,VALID,98.6841,VALID,0,VALID,18.7335,VALID,138,VALID,0.756944,
2003-08-28, 02:43:00,VALID,918.072,VALID,0,VALID,98.6435,VALID,0.0169808,VALID,18.7302,VALID,136,VALID,0.533036,
2003-08-28, 02:44:00,VALID,918.074,VALID,0,VALID,98.6269,VALID,0,VALID,18.7171,VALID,142,VALID,0.63742,
2003-08-28, 02:45:00,VALID,918.069,VALID,0,VALID,98.6206,VALID,0,VALID,18.7136,VALID,149,VALID,0.583869,
2003-08-28, 02:46:00,VALID,918.06,VALID,0,VALID,98.5862,VALID,0.0169808,VALID,18.7272,VALID,145,VALID,0.49379,
2003-08-28, 02:47:00,VALID,918.063,VALID,0,VALID,98.5888,VALID,0.0339617,VALID,18.7205,VALID,158,VALID,0.34442,
2003-08-28, 02:48:00,VALID,918.063,VALID,0,VALID,98.5989,VALID,0,VALID,18.7141,VALID,163,VALID,0.0149554,
2003-08-28, 02:49:00,VALID,918.07,VALID,0,VALID,98.6638,VALID,0.0169808,VALID,18.7205,VALID,179,VALID,0.197483,
2003-08-28, 02:50:00,VALID,918.08,VALID,0,VALID,98.7121,VALID,0,VALID,18.7173,VALID,219,VALID,0.277232,
2003-08-28, 02:51:00,VALID,918.088,VALID,0,VALID,98.7223,VALID,0.0169808,VALID,18.7109,VALID,219,VALID,0.235176,
2003-08-28, 02:52:00,VALID,918.08,VALID,0,VALID,98.7668,VALID,0,VALID,18.6947,VALID,219,VALID,0.177849,
2003-08-28, 02:53:00,VALID,918.098,VALID,0,VALID,98.8202,VALID,0,VALID,18.6753,VALID,219,VALID,0.268029,
2003-08-28, 02:54:00,VALID,918.089,VALID,0,VALID,98.8914,VALID,0,VALID,18.6788,VALID,233,VALID,0.195759,
2003-08-28, 02:55:00,VALID,918.093,VALID,0,VALID,98.9677,VALID,0,VALID,18.6721,VALID,258,VALID,0.34442,
2003-08-28, 02:56:00,VALID,918.088,VALID,0,VALID,99.0326,VALID,-0.101885,VALID,18.6671,VALID,264,VALID,0.326606,
2003-08-28, 02:57:00,VALID,918.081,VALID,0,VALID,99.0834,VALID,-0.101885,VALID,18.6537,VALID,264,VALID,0.0743304,
2003-08-28, 02:58:00,VALID,918.075,VALID,0,VALID,99.1432,VALID,-0.101885,VALID,18.6541,VALID,248,VALID,0.388622,
2003-08-28, 02:59:00,VALID,918.055,VALID,0,VALID,99.1801,VALID,-0.101885,VALID,18.6348,VALID,241,VALID,0.25046,
2003-08-28, 03:00:00,VALID,918.055,VALID,0,VALID,99.2373,VALID,-0.101885,VALID,18.6447,VALID,241,VALID,0.00641026,
2003-08-28, 03:01:00,VALID,918.052,VALID,0,VALID,99.25,VALID,-0.101885,VALID,18.6251,VALID,240,VALID,0.0404018,
2003-08-28, 03:02:00,VALID,918.059,VALID,0,VALID,99.2869,VALID,-0.101885,VALID,18.6382,VALID,240,VALID,0,
2003-08-28, 03:03:00,VALID,918.069,VALID,0,VALID,99.2945,VALID,-0.0849042,VALID,18.6417,VALID,240,VALID,0,
2003-08-28, 03:04:00,VALID,918.073,VALID,0,VALID,99.2589,VALID,-0.101885,VALID,18.6251,VALID,240,VALID,0.065625,
2003-08-28, 03:05:00,VALID,918.08,VALID,0,VALID,99.236,VALID,-0.101885,VALID,18.6124,VALID,230,VALID,0.0955529,
2003-08-28, 03:06:00,VALID,918.078,VALID,0,VALID,99.1966,VALID,-0.101885,VALID,18.6126,VALID,220,VALID,0.145221,
2003-08-28, 03:07:00,VALID,918.062,VALID,0,VALID,99.1648,VALID,-0.0849042,VALID,18.596,VALID,219,VALID,0.116587,
2003-08-28, 03:08:00,VALID,918.058,VALID,0,VALID,99.1356,VALID,-0.0849042,VALID,18.5863,VALID,219,VALID,0,
2003-08-28, 03:09:00,VALID,918.044,VALID,0,VALID,99.086,VALID,-0.0849042,VALID,18.5769,VALID,219,VALID,0.177455,
2003-08-28, 03:10:00,VALID,918.034,VALID,0,VALID,99.058,VALID,-0.0679233,VALID,18.5573,VALID,206,VALID,0.31467,
2003-08-28, 03:11:00,VALID,918.038,VALID,0,VALID,99.0618,VALID,-0.0169808,VALID,18.5434,VALID,155,VALID,0.381473,
2003-08-28, 03:12:00,VALID,918.036,VALID,0,VALID,99.1025,VALID,0.0169808,VALID,18.5337,VALID,152,VALID,0.428886,
2003-08-28, 03:13:00,VALID,918.039,VALID,0,VALID,99.1063,VALID,0,VALID,18.5271,VALID,152,VALID,0.430147,
2003-08-28, 03:14:00,VALID,918.041,VALID,0,VALID,99.0974,VALID,0,VALID,18.5109,VALID,142,VALID,0.180689,
2003-08-28, 03:15:00,VALID,918.044,VALID,0,VALID,99.1089,VALID,0,VALID,18.5082,VALID,135,VALID,0.182589,
2003-08-28, 03:16:00,VALID,918.03,VALID,0,VALID,99.1381,VALID,0.0169808,VALID,18.5017,VALID,136,VALID,0.624107,
2003-08-28, 03:17:00,VALID,918.027,VALID,0,VALID,99.2004,VALID,0.0169808,VALID,18.4814,VALID,114,VALID,0.561198,
2003-08-28, 03:18:00,VALID,918.009,VALID,0,VALID,99.2882,VALID,0,VALID,18.4982,VALID,108,VALID,0.746652,
2003-08-28, 03:19:00,VALID,918.01,VALID,0,VALID,99.264,VALID,0.0169808,VALID,18.4846,VALID,107,VALID,0.546474,
2003-08-28, 03:20:00,VALID,917.998,VALID,0,VALID,99.25,VALID,0.0339617,VALID,18.4883,VALID,78,VALID,0.67693,
2003-08-28, 03:21:00,VALID,918.007,VALID,0,VALID,99.2068,VALID,0.0169808,VALID,18.4627,VALID,74,VALID,0.865986,
2003-08-28, 03:22:00,VALID,918.007,VALID,0,VALID,99.222,VALID,0,VALID,18.4429,VALID,73,VALID,1.10826,
2003-08-28, 03:23:00,VALID,918.028,VALID,0,VALID,99.2475,VALID,0,VALID,18.4401,VALID,70,VALID,1.30536,
2003-08-28, 03:24:00,VALID,918.028,VALID,0,VALID,99.3021,VALID,0,VALID,18.4535,VALID,63,VALID,1.10872,
2003-08-28, 03:25:00,VALID,918.039,VALID,0,VALID,99.2551,VALID,0.0169808,VALID,18.4436,VALID,67,VALID,0.934821,
2003-08-28, 03:26:00,VALID,918.058,VALID,0,VALID,99.2398,VALID,0.0169808,VALID,18.4233,VALID,58,VALID,0.889223,
2003-08-28, 03:27:00,VALID,918.055,VALID,0,VALID,99.147,VALID,0.0169808,VALID,18.4367,VALID,57,VALID,0.766314,
2003-08-28, 03:28:00,VALID,918.065,VALID,0,VALID,99.0008,VALID,0,VALID,18.4076,VALID,52,VALID,0.875801,
2003-08-28, 03:29:00,VALID,918.086,VALID,0,VALID,98.8406,VALID,0,VALID,18.3855,VALID,45,VALID,0.940848,
2003-08-28, 03:30:00,VALID,918.087,VALID,0,VALID,98.8774,VALID,0.0169808,VALID,18.3592,VALID,54,VALID,0.933482,
2003-08-28, 03:31:00,VALID,918.105,VALID,0,VALID,98.9156,VALID,0.0169808,VALID,18.3751,VALID,69,VALID,0.825304,
2003-08-28, 03:32:00,VALID,918.112,VALID,0,VALID,98.9054,VALID,0,VALID,18.3758,VALID,73,VALID,1.12455,
2003-08-28, 03:33:00,VALID,918.104,VALID,0,VALID,98.9423,VALID,0.0169808,VALID,18.3753,VALID,86,VALID,1.05148,
2003-08-28, 03:34:00,VALID,918.109,VALID,0,VALID,98.9143,VALID,0.0169808,VALID,18.343,VALID,100,VALID,1.17693,
2003-08-28, 03:35:00,VALID,918.108,VALID,0,VALID,99.0211,VALID,0,VALID,18.3204,VALID,91,VALID,1.13141,
2003-08-28, 03:36:00,VALID,918.11,VALID,0,VALID,99.0771,VALID,0,VALID,18.2817,VALID,86,VALID,0.976563,